Theta_e
305 306 312 317 312 314 319 321 319 317 320 327 329 329 330 331 331 329 335 333 333 334 335 334 333 331 328 330 327 323 313 313 318 316 318 318 318 321 319 323 326 330 326 323 324 321 320 318 316
306 312 317 317 309 311 309 313 317 317 322 327 329 331 332 332 333 335 334 335 334 333 334 334 333 331 326 329 329 324 320 314 316 322 330 331 330 330 327 331 330 331 323 325 323 320 320 319 317
314 318 318 309 307 310 310 312 312 315 317 327 330 334 334 333 337 335 335 336 334 333 332 333 331 330 326 327 327 324 321 318 312 317 328 331 329 330 332 330 333 330 326 325 323 321 319 319 317
318 318 314 311 313 313 314 313 313 312 319 328 328 331 334 335 334 336 336 337 336 331 330 330 327 329 325 327 326 325 322 320 315 319 316 326 328 327 333 331 334 330 326 326 323 321 319 318 317
318 317 309 309 311 315 314 314 314 313 322 326 328 332 333 335 337 337 337 337 336 334 331 327 324 328 326 329 326 328 326 321 317 314 316 316 320 323 328 334 334 328 329 326 321 319 318 318 317
316 311 308 309 317 315 313 313 314 318 322 324 326 328 331 331 334 334 335 336 336 335 325 324 327 328 325 329 325 329 327 324 319 313 311 312 313 318 327 334 334 331 327 321 319 319 318 317 318
312 307 309 311 313 314 312 312 313 314 318 320 324 324 326 328 328 332 334 334 333 333 324 324 328 328 326 328 324 326 327 324 318 312 310 310 310 320 332 334 334 330 325 320 319 318 318 319 318
315 308 311 311 312 314 310 312 311 316 316 319 318 318 320 321 323 328 331 332 329 329 325 328 328 328 327 326 326 328 328 326 319 310 313 311 312 321 332 334 333 330 324 321 320 319 319 319 318
314 310 312 312 312 311 310 309 310 313 314 314 314 314 315 319 322 326 328 328 321 324 329 329 329 328 326 325 329 330 328 325 316 320 321 318 315 321 329 332 332 327 323 322 321 321 320 319 320
310 308 311 307 309 309 309 311 310 312 312 312 312 315 316 318 320 323 325 324 324 324 324 322 328 328 326 327 329 329 326 325 317 324 325 322 317 320 327 331 331 328 322 322 321 321 320 319 320
306 306 306 307 308 307 310 310 310 310 310 310 309 311 316 318 318 320 322 321 321 322 321 322 319 327 326 326 326 325 323 322 319 324 327 323 321 317 325 329 330 328 323 322 321 321 320 320 320
306 307 307 307 309 310 309 310 309 310 310 308 308 309 313 316 315 316 318 320 321 321 320 318 321 330 327 325 325 325 325 319 318 325 328 326 322 318 319 324 327 328 327 324 322 321 321 320 320
306 307 308 307 309 308 308 308 308 309 308 306 305 306 309 312 315 314 317 318 318 319 321 318 318 325 328 327 326 325 321 321 319 324 326 327 323 322 320 321 322 323 323 326 324 323 321 322 322
307 308 307 307 308 309 307 306 306 305 306 304 304 304 305 307 308 313 314 317 317 318 318 319 319 319 326 327 325 322 319 320 323 322 324 327 326 324 321 320 319 318 318 322 322 322 322 322 322
307 307 306 307 306 307 307 306 304 306 305 304 303 303 303 303 305 306 309 313 316 316 317 319 318 319 320 324 326 324 321 322 325 323 325 327 326 323 324 321 322 321 321 321 322 322 321 322 321
305 304 306 306 306 307 307 307 304 305 304 303 303 303 303 303 303 303 303 308 311 313 316 317 317 317 318 317 321 324 325 322 323 323 324 326 327 327 325 324 322 322 321 321 321 322 322 322 322
303 307 307 306 305 304 306 307 304 303 303 302 302 302 302 302 302 302 302 303 304 311 315 316 316 318 317 318 318 320 324 326 324 325 324 323 325 326 325 325 324 323 321 321 321 321 321 320 320
308 307 306 306 305 305 305 305 304 303 303 302 302 302 301 301 301 301 300 301 302 303 310 314 316 316 317 318 318 319 321 323 325 327 325 324 322 322 321 321 324 324 322 321 322 321 321 321 321
307 307 305 304 305 305 306 304 303 303 302 302 302 302 301 301 300 300 299 299 301 302 303 308 312 315 316 319 318 318 319 319 324 326 326 326 325 323 321 319 322 325 324 322 321 321 322 321 321
306 306 305 303 304 305 306 305 303 303 303 303 302 301 300 300 300 299 298 298 300 301 302 302 304 310 314 316 317 318 318 318 320 322 325 326 325 325 324 322 319 320 323 323 322 320 322 322 321
306 307 306 305 304 305 303 302 304 303 303 302 302 301 300 300 300 299 298 297 298 300 302 302 302 303 305 312 317 317 317 317 318 319 321 323 323 323 320 320 318 316 316 318 320 318 319 320 320
308 306 306 306 305 307 303 304 302 303 302 302 302 302 301 300 299 298 298 296 297 299 301 302 302 302 302 304 308 317 318 318 318 318 320 322 323 322 324 322 321 321 318 316 316 316 316 317 317
305 304 305 306 305 305 306 300 302 303 303 301 302 302 301 300 299 298 297 296 296 299 301 302 302 302 302 302 303 308 316 318 317 317 317 319 322 322 323 324 324 323 324 321 320 319 320 320 319
304 306 301 302 303 299 306 302 302 304 304 302 302 302 301 300 299 298 297 296 295 298 301 302 302 302 302 303 303 303 304 313 318 318 318 319 320 321 321 322 324 324 324 323 324 322 322 321 321
302 299 294 295 295 300 302 302 302 302 303 302 302 303 301 300 299 298 296 296 295 296 300 301 302 302 302 302 302 303 302 303 311 316 318 319 320 319 321 322 321 321 321 323 323 323 323 322 322
305 301 296 294 299 299 302 306 306 304 304 304 303 303 302 300 299 297 296 295 295 295 297 300 302 302 303 302 301 302 302 302 302 308 315 317 318 319 321 319 322 320 321 323 323 322 322 322 321
302 299 302 296 292 300 301 302 303 303 302 303 303 303 303 301 300 297 295 295 294 294 297 299 302 302 303 303 302 302 301 302 302 302 305 313 316 319 321 320 319 320 320 320 322 323 322 321 322
303 303 297 294 293 294 298 299 304 305 304 301 302 303 303 301 301 299 295 295 294 295 296 298 301 302 303 303 303 302 302 301 302 303 302 305 312 316 319 320 320 321 321 321 321 322 322 321 322
302 299 303 301 299 294 294 297 297 303 302 301 301 303 302 301 301 300 296 295 295 295 297 298 298 302 302 303 303 303 303 303 302 301 302 303 305 312 316 318 320 320 320 320 321 320 321 322 321
300 303 303 294 292 295 297 297 299 301 301 302 303 303 302 302 301 301 298 295 295 295 295 295 298 300 301 303 303 303 304 303 302 301 302 303 303 306 312 316 317 319 320 320 319 319 319 320 320
Wind_Speed
1 5 7 6 4 5 3 5 2 7 6 7 6 3 6 6 1 3 5 17 22 31 28 26 24 22 21 20 18 16 16 17 17 17 16 15 16 15 16 15 17 16 19 17 15 15 15 13 13
4 9 7 4 5 2 4 5 6 4 10 1 5 4 8 3 6 0 16 11 23 29 28 25 24 21 21 21 18 15 16 16 17 17 17 16 16 15 16 18 19 19 20 16 15 15 15 13 11
7 9 3 4 3 3 3 4 7 15 10 12 3 9 4 7 7 9 8 9 22 30 28 26 23 22 21 20 18 17 16 17 17 17 18 16 14 15 16 18 21 19 19 17 13 12 13 12 9
4 2 6 4 3 1 2 8 9 14 7 18 8 5 6 12 6 5 4 7 18 27 28 27 24 23 21 21 20 20 17 17 16 16 18 18 14 12 14 20 25 22 20 17 13 11 12 10 8
4 4 4 3 0 1 2 15 11 6 8 16 15 3 4 8 5 4 9 12 16 24 26 27 25 26 23 22 20 20 19 17 16 15 16 17 17 14 14 20 26 23 18 15 14 11 10 8 8
4 3 4 2 1 4 6 19 10 14 13 20 12 6 4 6 6 1 12 12 13 22 25 24 24 26 24 23 21 20 18 16 15 15 16 16 17 17 15 24 24 19 17 17 14 11 10 8 8
5 4 2 2 3 5 6 20 6 6 16 11 12 3 9 13 18 9 6 12 12 23 24 25 25 25 24 23 22 20 18 15 13 14 14 15 17 18 19 25 24 18 18 16 15 12 10 9 8
3 5 3 3 2 1 11 11 10 14 8 3 9 7 7 30 25 21 10 8 3 18 20 23 26 26 25 23 21 21 18 15 13 14 13 14 19 22 22 23 18 18 17 16 16 15 13 10 6
3 4 3 3 4 5 12 8 9 6 11 15 13 14 16 19 19 18 15 19 38 14 11 19 24 26 26 24 22 20 17 14 15 16 15 14 18 22 22 22 18 17 17 18 18 18 16 11 7
7 4 2 1 1 3 2 12 7 5 11 11 19 17 17 15 15 15 15 10 14 26 23 21 18 27 25 25 24 22 17 15 17 18 17 16 16 22 21 22 20 15 19 19 18 17 17 13 8
4 3 1 4 6 3 3 2 12 5 6 8 14 21 20 18 16 14 12 15 11 10 20 30 31 31 28 26 24 21 18 18 18 19 18 17 16 20 23 23 19 19 19 19 20 17 16 13 8
6 6 4 4 6 1 2 4 6 11 2 7 11 13 15 17 17 17 18 16 18 18 10 18 30 25 26 25 25 21 19 21 22 22 20 20 17 18 23 23 21 19 19 18 19 17 17 14 10
5 0 5 6 5 11 13 12 6 5 6 8 11 12 14 13 12 13 13 14 17 17 11 3 26 9 27 23 20 19 20 22 23 23 21 21 18 17 19 20 21 19 18 19 19 16 16 13 10
4 7 7 8 5 4 5 4 2 6 3 8 12 15 15 14 14 10 11 11 12 13 14 12 13 22 16 26 21 19 21 21 22 23 22 21 20 18 18 18 18 18 18 19 20 18 16 14 11
3 2 4 12 14 2 3 5 4 2 2 8 11 13 14 16 15 15 13 12 9 8 6 3 14 13 19 10 22 22 21 24 22 22 22 22 22 20 17 17 17 14 15 16 17 19 16 16 13
5 4 4 2 14 5 2 1 4 3 2 7 8 10 12 14 16 15 14 10 10 8 5 5 5 10 21 24 7 23 24 25 25 25 24 22 22 21 19 18 17 16 16 16 17 18 20 17 15
7 1 3 6 6 5 6 2 1 2 2 5 6 8 10 11 13 16 15 13 12 9 5 4 4 6 5 13 11 7 25 28 29 27 26 25 24 22 20 19 19 18 18 17 18 19 19 17 16
2 3 4 4 5 6 4 3 2 2 2 3 5 8 9 10 14 17 16 14 12 10 8 6 7 4 3 6 8 8 7 11 32 29 29 27 24 23 22 21 23 21 21 18 19 18 19 18 16
1 1 3 4 2 6 2 4 5 3 2 2 4 6 8 9 11 13 15 15 14 11 10 9 9 6 4 8 7 9 8 9 18 21 36 32 25 23 23 22 23 24 23 21 20 21 20 20 18
3 2 4 6 4 3 3 6 5 4 3 2 2 3 5 8 10 13 15 16 17 17 14 12 9 9 7 4 6 5 5 8 10 10 18 31 28 26 24 23 23 24 25 24 23 22 24 23 20
2 2 4 4 6 0 6 5 4 4 4 3 3 4 5 8 11 13 15 17 17 18 16 14 11 8 9 10 7 9 7 6 12 3 5 25 26 27 27 26 25 24 25 27 25 23 24 23 22
3 2 4 4 4 1 4 4 4 4 6 6 7 6 5 7 9 12 15 17 19 18 16 15 13 11 7 11 8 12 13 12 9 10 6 17 14 34 29 27 25 22 21 23 23 22 20 20 22
6 4 3 2 1 2 2 3 6 2 6 8 10 8 7 6 9 11 13 15 17 18 16 15 15 14 10 7 10 13 15 17 14 13 15 15 14 15 10 25 25 23 23 22 22 23 21 21 20
6 1 3 3 1 3 2 4 5 3 4 3 5 8 7 6 7 11 12 13 16 16 15 16 17 14 11 9 9 13 15 17 20 25 22 21 19 16 17 14 19 22 27 23 28 25 22 23 24
8 4 3 5 4 4 1 2 8 3 4 3 6 7 7 7 8 10 13 15 17 16 14 14 14 14 11 9 9 10 13 16 19 21 22 25 18 21 17 19 22 18 19 22 27 30 27 23 30
3 2 4 4 2 5 2 4 3 2 3 6 8 9 10 9 10 11 11 13 15 16 15 13 13 12 11 9 9 9 11 14 17 20 22 20 22 22 21 22 21 16 14 15 17 19 20 23 24
5 4 1 5 1 2 4 6 5 2 5 9 12 12 13 12 11 13 13 14 15 16 14 14 14 11 10 8 8 8 8 11 14 18 20 22 22 19 20 18 24 19 20 20 17 14 23 22 22
3 2 3 3 3 4 5 5 4 4 6 5 8 12 14 13 13 13 14 14 15 15 13 11 11 11 10 10 9 7 8 9 11 15 18 21 21 22 19 23 18 16 17 15 13 15 9 12 11
3 2 1 1 2 4 1 6 6 6 5 7 11 11 11 12 13 13 13 14 16 15 13 12 12 11 9 9 9 8 7 7 7 10 13 18 18 19 21 19 18 15 14 15 16 10 11 13 13
3 2 3 4 6 0 2 6 4 6 8 8 12 11 12 13 14 13 13 12 12 13 12 12 11 10 10 10 9 7 7 6 5 6 8 11 13 15 16 14 15 12 12 12 8 9 8 7 7
Wind_Direction
238 157 160 139 63 56 284 276 281 313 322 2 11 33 118 36 29 199 178 163 175 175 173 174 176 180 179 172 169 167 166 164 160 159 158 155 154 153 157 163 157 156 140 132 129 121 109 95 91
150 140 132 99 91 76 275 284 315 296 328 256 20 352 28 40 3 169 152 164 178 181 178 178 180 181 183 178 178 177 176 174 165 159 157 155 157 162 155 155 157 152 142 142 136 127 115 99 87
131 143 105 93 92 156 238 325 305 309 335 22 52 56 32 353 20 146 173 165 179 182 182 182 185 186 184 183 181 179 180 180 175 170 166 159 155 158 172 161 161 155 145 140 137 131 118 100 90
124 88 57 83 134 288 39 312 313 329 2 29 2 41 73 34 334 315 289 194 184 190 186 186 187 189 184 184 182 180 180 180 182 177 174 172 169 158 162 166 167 160 148 141 143 138 126 110 104
91 61 58 75 137 320 16 357 358 349 3 358 21 6 51 17 48 167 232 239 202 198 195 191 188 189 185 185 185 182 177 181 187 191 185 179 174 170 168 170 170 165 152 147 150 136 125 116 106
73 65 60 110 140 0 343 354 351 9 3 9 20 0 51 2 359 245 199 228 220 208 197 193 190 191 188 186 187 186 186 189 197 196 193 186 180 172 170 171 174 168 150 149 145 137 138 120 108
96 79 110 38 345 20 333 346 30 341 13 12 355 21 328 349 345 315 251 217 240 209 198 193 194 195 192 191 189 192 191 191 200 203 198 191 182 164 168 171 169 161 153 148 142 144 144 123 123
82 87 70 18 349 80 341 357 16 34 27 6 27 16 337 346 345 332 287 213 158 204 204 202 200 197 192 196 194 192 193 194 199 197 180 176 173 167 171 172 169 169 159 157 152 150 149 130 121
83 62 79 14 13 297 358 6 21 48 60 49 35 15 340 339 352 327 299 273 292 323 209 218 214 199 193 195 195 193 194 196 192 185 175 170 172 174 173 178 175 171 167 166 162 158 156 143 120
56 74 70 180 287 292 330 46 342 29 37 12 1 7 356 354 358 347 340 343 259 270 293 330 232 206 195 193 193 195 202 204 200 192 185 173 171 177 175 179 183 174 170 169 169 166 161 151 131
50 101 265 2 355 335 304 60 33 5 32 16 341 351 356 5 16 23 10 16 18 336 269 269 306 199 197 196 199 201 201 203 201 195 191 183 174 178 180 181 183 169 172 173 173 174 168 160 157
89 57 64 12 52 26 38 92 55 49 61 5 2 1 359 15 26 39 53 41 42 46 45 305 336 175 196 202 204 204 208 201 194 193 192 191 182 176 180 190 189 180 176 183 179 176 173 168 175
77 204 42 42 81 95 89 76 83 58 34 19 15 9 11 17 28 39 51 47 48 38 16 338 314 262 181 201 211 214 211 200 191 195 197 197 191 182 179 186 195 197 192 183 179 182 185 189 192
108 102 37 32 33 73 86 54 112 36 48 43 23 18 16 14 18 16 30 44 40 54 42 26 307 326 214 190 203 207 205 196 195 199 199 199 199 191 185 183 191 197 200 194 193 192 196 201 210
89 79 32 12 349 44 170 36 28 80 63 42 32 19 17 20 17 13 12 5 23 14 36 324 327 331 360 166 201 204 200 198 203 201 198 201 196 198 199 192 188 194 192 193 196 193 201 207 220
37 50 23 348 15 342 48 307 18 148 61 46 35 17 11 12 14 13 10 10 347 4 32 73 131 325 295 315 301 216 209 206 205 199 201 201 200 202 203 211 207 194 194 195 192 192 202 209 217
16 0 340 331 23 330 32 266 62 98 69 51 34 16 6 4 5 7 12 5 353 353 342 346 316 160 120 305 307 297 214 210 208 204 202 205 204 203 208 212 211 209 203 205 206 202 208 215 226
332 354 326 286 319 358 10 295 297 350 18 33 20 6 2 10 8 2 8 4 353 346 318 306 316 322 112 212 311 283 254 235 213 210 205 207 208 210 215 217 217 216 211 211 219 222 219 225 231
222 252 297 278 283 355 270 280 260 288 330 356 16 8 357 0 6 2 6 4 358 345 332 313 313 305 309 170 195 204 205 263 222 215 209 203 211 215 217 217 216 219 224 224 227 229 227 229 230
44 343 310 274 269 352 328 287 245 245 255 270 317 349 349 344 353 358 3 7 4 358 347 332 306 284 273 264 165 187 195 201 244 201 220 196 202 211 224 223 220 223 227 227 230 237 232 232 237
24 38 318 268 323 86 342 307 268 259 242 225 268 310 323 333 340 347 354 360 0 0 355 341 328 299 265 260 222 211 193 176 198 235 152 200 209 216 218 221 224 225 229 231 234 236 235 237 238
312 189 296 298 9 324 45 287 286 258 258 248 253 277 305 318 334 339 347 355 357 356 353 347 338 325 293 261 238 240 225 223 192 204 214 186 219 228 219 214 219 225 228 230 233 237 238 238 240
238 347 278 289 343 28 5 69 269 22 281 262 257 266 289 301 325 334 340 348 353 352 349 351 344 336 323 283 262 233 236 226 219 205 199 222 224 228 230 217 228 225 231 230 234 235 241 244 243
302 52 34 29 45 32 289 108 286 241 235 305 258 264 280 281 313 325 331 340 349 351 348 354 350 341 337 320 277 256 240 233 233 237 238 235 238 223 240 231 238 243 235 237 240 238 241 249 249
35 45 348 347 14 214 35 93 246 277 255 242 265 276 280 274 305 323 327 334 343 348 349 355 352 351 347 332 303 270 255 242 236 237 238 242 244 238 241 233 238 250 252 250 270 237 242 250 257
358 79 135 253 322 280 287 240 261 218 269 276 277 282 283 282 306 321 326 333 343 344 344 349 352 350 347 345 330 296 265 255 240 236 236 236 233 238 234 241 247 234 241 252 261 253 253 259 259
316 33 139 111 8 344 275 293 300 277 289 279 274 274 274 283 306 321 324 332 341 346 346 351 352 348 351 349 343 331 307 266 250 240 238 233 230 228 220 230 240 236 251 254 265 270 263 258 271
105 170 17 2 22 317 299 287 246 256 260 263 275 265 272 280 298 314 319 330 341 349 350 349 352 355 357 347 344 335 326 304 273 250 241 238 232 229 229 225 234 237 250 245 248 266 276 254 274
40 355 56 101 126 171 292 274 215 217 219 229 263 276 280 282 291 309 317 327 338 346 346 343 348 352 356 353 352 346 329 311 295 274 249 235 229 228 226 220 219 228 243 238 237 240 253 241 249
135 230 164 125 279 189 157 275 241 233 253 240 266 288 285 283 285 300 307 315 329 336 341 347 356 353 349 355 358 360 351 329 308 270 249 230 218 215 218 221 219 227 229 234 235 247 259 250 240